Regional Weather Roundup
Issued by NWS Binghamton, NY

Home | Current Version | Previous Version | Text Only | Print | Product List | Glossary On
Versions: 1 2 3 4 5 6 7 8 9 10 11 12 13 14 15 16 17 18 19 20 21 22 23 24 25 26 27 28 29 30 31 32 33 34 35 36 37 38 39 40 41 42 43 44 45 46 47 48 49 50
000
ASUS41 KBGM 300810
RWRBGM

REGIONAL WEATHER ROUNDUP
NATIONAL WEATHER SERVICE BINGHAMTON NY
400 AM EDT THU MAR 30 2017

Note: "fair" indicates few or no clouds below 12,000 feet with no
significant weather and/or obstructions to visibility.

* = Station(s) that does not report precipitation, such as rain,
snow, etc, also no thunder or fog.

NYZ009-015>018-022>025-036-037-044>046-055>057-062-300900
...Central New York...

CITY           SKY/WX    TMP DP  RH WIND       PRES   REMARKS
Binghamton     PTCLDY    28  22  78 NW6       30.21R WCI  22
Cortland       FAIR      27  27 100 SW3       30.24R
Dansville      CLOUDY    29  25  85 SE3       30.29R
Elmira         CLOUDY    27  22  81 W3        30.26S
Seneca Falls   SUNNY     32  28  86 CALM      30.29S
Ithaca         CLOUDY    24  21  88 CALM      30.26R
Hamilton       CLEAR     25  23  93 CALM      30.23S
Monticello     CLEAR     28  21  74 W5        30.20R WCI  23
Norwich        CLEAR     25  23  93 CALM      30.24R
Penn Yan       CLEAR     29  22  75 W3        30.27R
Rome           CLEAR     22  20  92 CALM      30.27S
Sidney         CLEAR     27  27 100 W3        30.23R
Syracuse       PTCLDY    25  23  92 CALM      30.27S
$$

PAZ038>040-043-044-047-048-072-300900
...Northeast Pennsylvania...

CITY           SKY/WX    TMP DP  RH WIND       PRES   REMARKS
Hazleton       CLOUDY    32  23  69 CALM      30.24S
Scranton       CLOUDY    29  23  78 CALM      30.23R
$$
&&
KEY
WCI = Wind Chill Index
VSB = Visibility
HX  = Heat Index
$$



USA.gov is the U.S. government's official web portal to all federal, state and local government web resources and services.